Location: Breungeshain
(50.5000°N, 9.2000°E)
Time: 05:46:11
(UTC+00:00)

ISS - Pass Details

Date: 23 May 2018
Orbit: 402 x 407 km, 51.6° (Epoch: 23 May)

Event Time Altitude Azimuth Distance (km) Brightness Sun altitude
Rises 20:06:48 0° 228° (SW) 2,313 0.1 -7.1°
Reaches altitude 10° 20:08:58 10° 220° (SW) 1,455 -1.1 -7.3°
Maximum altitude 20:12:00 37° 151° (SSE) 642 -3.3 -7.7°
Drops below altitude 10° 20:15:04 10° 82° (E) 1,460 -1.3 -8.0°
Sets 20:17:13 0° 74° (ENE) 2,322 -0.2 -8.2°
